Regional Weather Roundup
Issued by NWS

Home | Current Version | Previous Version | Graphics & Text | Print | Product List | Glossary On
Versions: 1 2 3 4 5 6 7 8 9 10 11 12 13 14 15 16 17 18 19 20 21 22 23 24 25 26 27 28 29 30 31 32 33 34 35 36 37 38 39 40 41 42 43 44 45 46 47 48 49 50
000
ASUS43 KLOT 050308
RWRIL

ILLINOIS REGIONAL WEATHER ROUNDUP
NATIONAL WEATHER SERVICE CHICAGO/ROMEOVILLE IL
1000 PM CDT SAT JUL 04 2015

NOTE: "FAIR" INDICATES FEW OR NO CLOUDS BELOW 12,000 FEET WITH NO
SIGNIFICANT WEATHER AND/OR OBSTRUCTIONS TO VISIBILITY.

* THESE STATIONS ARE NOT UNDER NWS QUALITY CONTROL. THEY ALSO MAY NOT
  REPORT WEATHER SUCH AS PRECIPITATION OR FOG.

ILZ001-002-007-009-015-016-024-050400-
NORTHWEST ILLINOIS

CITY           SKY/WX    TMP DP  RH WIND       PRES   REMARKS
MOLINE         CLEAR     68  62  81 CALM      30.01R HAZE
STERLING*      CLEAR     64  61  88 SE3       30.02R
SAVANNA*       CLEAR     67  64  90 SE3       30.00R
$$

ILZ003-004-008-010-011-017-018-050400-
NORTH CENTRAL ILLINOIS

CITY           SKY/WX    TMP DP  RH WIND       PRES   REMARKS
ROCKFORD       CLEAR     70  62  76 S5        30.03R
FREEPORT*      CLEAR     65  62  89 S6        30.03R
ROCHELLE*      CLEAR     65  62  91 CALM      30.03R
DE KALB*       CLEAR     66  58  77 CALM      30.04R
PERU*          CLEAR     73  59  62 CALM      30.03R
$$

ILZ005-006-012>014-019>023-050400-
NORTHEAST ILLINOIS

CITY           SKY/WX    TMP DP  RH WIND       PRES   REMARKS
CHICAGO-OHARE  PTCLDY    68  57  68 SE6       30.02R
CHICAGO-MIDWAY CLEAR     72  58  61 SE5       30.02R
AURORA         CLEAR     69  60  73 S5        30.03R
LANSING*       CLEAR     70  59  67 CALM      30.03R
JOLIET*        CLEAR     65  61  86 CALM      30.02R
WAUKEGAN       CLEAR     62  56  80 CALM      30.01R
DUPAGE AIRPORT CLEAR     68  61  78 CALM      30.01R
KANKAKEE*      CLEAR     68  65  90 CALM      30.04R
WHEELING       CLEAR     69  56  62 SE3       30.03R
MORRIS*        CLEAR     71  61  70 CALM      30.01R
ROMEOVILLE*    CLEAR     70  57  63 CALM      30.03R HAZE
NORTHERLY ISL    N/A     67  58  72 S2          N/A
$$

LMZ740>746-050400-
SOUTHERN LAKE MICHIGAN

STATION/POSITION SKY/WX   TEMP    WIND        PRES    VSBY  WAVE
                          AIR SEA DIR/SP/G                  HT/PER
                          (F)     (DEG/KT/KT) (MB)    (MI)  (FT/S)
HARRISON CRIB              67     160/  6/  7   N/A
BURNHAM HARBOR             67     160/  2/  2   N/A
CALUMET HARBOR             69      70/  4/  5   N/A
BURNS HARBOR               68      70/  6/  8 1016.9R
MICHIGAN CITY              72      80/  3/  3   N/A
MICHIGAN CITY 6N           67 65  140/  4/  4   N/A           0
ST. JOSEPH                 66 65                N/A           0
$$

ILZ025>027-034>036-040-047-049-050-058-095>099-050400-
WEST-CENTRAL ILLINOIS

CITY           SKY/WX    TMP DP  RH WIND       PRES   REMARKS
QUINCY         CLEAR     72  64  76 SE6       30.00R
GALESBURG*     CLEAR     65  62  89 CALM      30.03R
MACOMB*        CLEAR     65  64  94 SE3       30.03R
JACKSONVILLE*  CLEAR     72  68  88 CALM      30.02R
PITTSFIELD*    CLEAR     71  66  85 CALM      30.03R
$$

ILZ028>032-037-038-041>044-048-051>054-059>061-050400-
CENTRAL ILLINOIS

CITY           SKY/WX    TMP DP  RH WIND       PRES   REMARKS
PONTIAC        CLEAR     68  64  89 CALM      30.04R
BLOOMINGTON    CLEAR     71  64  78 S5        30.05R
DECATUR        CLEAR     68  64  87 CALM      30.04R
PEORIA         CLEAR     71  62  73 CALM      30.02R
LACON*         CLEAR     66  62  87 CALM      30.02R
LINCOLN*       CLEAR     69  64  85 CALM      30.03R
SPRINGFIELD    CLEAR     73  64  73 SE5       30.02R
TAYLORVILLE    CLEAR     64  63  94 E3        30.03R
$$

ILZ033-039-045-046-055>057-062-063-050400-
EAST-CENTRAL ILLINOIS

CITY           SKY/WX    TMP DP  RH WIND       PRES   REMARKS
CHAMPAIGN      CLEAR     67  63  87 S3        30.04R
DANVILLE*      CLEAR     64  62  94 CALM      30.02R
RANTOUL*       CLEAR     70  65  85 CALM      30.04R
MATTOON        CLEAR     69  64  84 CALM      30.03R
PARIS*         CLEAR     65  64  94 CALM      30.04R
$$

ILZ079-100>102-050400-
SOUTHWEST ILLINOIS

CITY           SKY/WX    TMP DP  RH WIND       PRES   REMARKS
ALTON          CLEAR     70 N/A N/A CALM      30.01R
BELLEVILLE     CLEAR     69  68  99 CALM      30.00R
CAHOKIA*       CLEAR     71  65  81 CALM      30.01R
SPARTA*        PTCLDY    71  65  81 E3        30.02R
$$

ILZ064>066-069>071-074>076-080>082-084>086-088>090-092>094-050400-
SOUTH-CENTRAL ILLINOIS

CITY           SKY/WX    TMP DP  RH WIND       PRES   REMARKS
CARBONDALE     MOCLDY    71  68  90 CALM      30.01R
CAIRO*         CLOUDY    73  71  95 CALM      30.01R FOG
EFFINGHAM*     PTCLDY    68  64  86 CALM      30.04R
MARION         MOCLDY    72  70  94 CALM      30.02R FOG
MT. VERNON     PTCLDY    68  63  83 CALM      30.02R
CENTRALIA*     PTCLDY    68  65  91 CALM      30.02R FOG
SALEM*         PTCLDY    72  64  76 CALM      30.02R
$$

ILZ067-068-072-073-078-083-087-091-050400-
SOUTHEAST ILLINOIS

CITY           SKY/WX    TMP DP  RH WIND       PRES   REMARKS
LAWRENCEVILLE  MOCLDY    71  67  87 NE6       30.02R
FLORA*         MOCLDY    70  67  89 CALM      30.02R
FAIRFIELD*     MOCLDY    70  68  92 CALM      30.01R
HARRISBURG*    MOCLDY    70  69  98 CALM      30.02R
ROBINSON*      MOCLDY    69  67  94 CALM      30.03R
CARMI*         MOCLDY    71  65  81 CALM      30.00R
$$

ABBREVIATIONS USED IN REMARKS
   TC - TEMPERATURE IN CELSIUS
  WCI - WIND CHILL INDEX
   HX - HEAT INDEX
  VSB - VISIBILITY
$$




USA.gov is the U.S. government's official web portal to all federal, state and local government web resources and services.